This is the latest recevied weather packets stored in our database for station/object KB0Y. If no packets are shown the sender has not sent any weather packets the latest 10 day(s).
| Time | Temp. | Humidity | Pressure | Rain* | Wind** | Luminosity | Snow |
|---|---|---|---|---|---|---|---|
| 1777930213 | 27.78° C | 38% | 1018.9 hPa | 0 mm | - | 478 W/m² | - |
| 1777929908 | 27.78° C | 38% | 1018.6 hPa | 0 mm | - | 487 W/m² | - |
| 1777929606 | 27.78° C | 40% | 1018.6 hPa | 0 mm | - | 485 W/m² | - |
| 1777929302 | 28.33° C | 39% | 1018.9 hPa | 0 mm | - | 496 W/m² | - |
| 1777929000 | 28.33° C | 38% | 1018.6 hPa | 0 mm | - | 500 W/m² | - |
| 1777928696 | 28.33° C | 38% | 1018.9 hPa | 0 mm | - | 440 W/m² | - |
| 1777928393 | 27.78° C | 37% | 1018.9 hPa | 0 mm | - | 518 W/m² | - |
| 1777928091 | 27.78° C | 38% | 1018.6 hPa | 0 mm | - | 521 W/m² | - |
| 1777927789 | 27.78° C | 40% | 1018.9 hPa | 0 mm | - | 528 W/m² | - |
| 1777927487 | 27.22° C | 38% | 1018.9 hPa | 0 mm | - | 528 W/m² | - |
| 1777927186 | 27.22° C | 39% | 1018.9 hPa | 0 mm | - | 533 W/m² | - |
| 1777926883 | 27.22° C | 38% | 1019.3 hPa | 0 mm | - | 532 W/m² | - |
| 1777926579 | 27.22° C | 36% | 1018.9 hPa | 0 mm | - | 535 W/m² | - |
| 1777926276 | 27.22° C | 37% | 1019.3 hPa | 0 mm | - | 540 W/m² | - |
| 1777925972 | 27.22° C | 38% | 1019.3 hPa | 0 mm | - | 545 W/m² | - |
| 1777925670 | 27.22° C | 37% | 1019.3 hPa | 0 mm | - | 545 W/m² | - |
| 1777925367 | 27.22° C | 39% | 1019.6 hPa | 0 mm | - | 547 W/m² | - |
| 1777925064 | 27.22° C | 38% | 1019.6 hPa | 0 mm | - | 547 W/m² | - |
| 1777924761 | 27.22° C | 38% | 1020 hPa | 0 mm | - | 558 W/m² | - |
| 1777924456 | 26.67° C | 36% | 1020 hPa | 0 mm | - | 563 W/m² | - |
| 1777924153 | 26.67° C | 38% | 1020 hPa | 0 mm | - | 562 W/m² | - |
| 1777923849 | 26.67° C | 38% | 1020 hPa | 0 mm | - | 551 W/m² | - |
| 1777923545 | 26.67° C | 38% | 1020 hPa | 0 mm | - | 563 W/m² | - |
| 1777923243 | 26.67° C | 39% | 1020 hPa | 0 mm | - | 564 W/m² | - |
| 1777922941 | 26.67° C | 39% | 1020 hPa | 0 mm | - | 564 W/m² | - |
* Rain latest hour (hover to see other rain measurements)
** Current wind speed in m/s (hover to see current wind gust speed)